[ hide orbit diagram ]
For accurate long-term ephemerides, please instead use our Horizons system.This orbit viewer was implemented using two-body methods, and hence should not be used for determining accurate long-term trajectories (over several years or decades) or planetary encounter circumstances.
Orbital Elements at Epoch 2459000.5 (2020-May-31.0) TDB
Reference: JPL 19 (heliocentric ecliptic J2000)
Element | Value | Uncertainty (1-sigma) | Units |
e | .06816077878282639 | 5.6792e-08 | |
a | 2.266639487942835 | 1.1346e-08 | au |
q | 2.112143575224744 | 1.2679e-07 | au |
i | 7.527067696587512 | 7.3587e-06 | deg |
node | 26.19302985662155 | 3.056e-05 | deg |
peri | 223.689450786434 | 5.26e-05 | deg |
M | 201.5771410136161 | 4.3431e-05 | deg |
tp | 2459549.013661039379 (2021-Nov-30.51366104) | 0.00015081 | TDB |
period | 1246.44208062896 3.41 | 9.3585e-06 2.562e-08 | d yr |
n | .2888220845515281 | 2.1685e-09 | deg/d |
Q | 2.421135400660926 | 1.2119e-08 | au |
|
| | Orbit Determination Parameters
Additional Information
|
[ show covariance matrix ]
Physical Parameter Table
Parameter |
Symbol |
Value |
Units |
Sigma |
Reference |
Notes |
absolute magnitude |
H |
16.4 |
|
n/a |
MPO503110 |
|
|
226206 (2002 VP16) Discovered 2002-Nov-05 by LINEAR at Socorro |
Reference: 20091202/Numbers.arc | Last Updated: 2009-12-04 |
|
[ show close-approach data ]
|